Terminal Aerodrome Forecast
Issued by NWS State College, PA

Home | Current Version | Previous Version | Text Only | Print | Product List | Glossary On
Versions: 1 2 3 4 5 6 7 8 9 10 11 12 13 14 15 16 17 18 19 20 21 22 23 24 25 26 27 28 29 30 31 32 33 34 35 36 37 38 39 40 41 42 43 44 45 46
000
FTUS41 KCTP 281746
TAFIPT
TAF
KIPT 281746Z 2818/2918 28010G17KT P6SM -SHRA BKN040
      TEMPO 2819/2820 2SM RA BKN030
     FM282100 30010KT P6SM VCSH BKN040
     FM290800 30004KT 3SM BR SCT040
     FM291300 30007KT P6SM SCT040=

USA.gov is the U.S. government's official web portal to all federal, state and local government web resources and services.